When you browse on this site, cookies collect data to enhance your experience and personalize the content and advertising you see.
Visit our Privacy Policy to learn more. By continuing to use the site, you agree to this use of cookies and data.
  • In Hungary
  • List of Countries
  • For 7 days
  • Water Temperature
  • Weather Map
  • News
  • Weather Widgets
  • user-avatar
    Login

    Hourly Weather Trud

    Today, 15 October, Tuesday

    Time Temperature Precipitation Wind Pressure Humidity
    00:00 +7°C° 0 mm 3 mps 758 mmHg 89%
    01:00 +8°C° 0.9 mm 3 mps 757 mmHg 91%
    02:00 +7°C° 0.9 mm 4 mps 756 mmHg 93%
    03:00 +7°C° 0.9 mm 4 mps 755 mmHg 95%
    04:00 +8°C° 1 mm 5 mps 754 mmHg 95%
    05:00 +9°C° 1 mm 6 mps 753 mmHg 94%
    06:00 +11°C° 1 mm 7 mps 752 mmHg 94%
    07:00 +11°C° 0.5 mm 7 mps 751 mmHg 92%
    08:00 +12°C° 0.5 mm 8 mps 751 mmHg 90%
    09:00 +13°C° 0.5 mm 8 mps 751 mmHg 88%
    10:00 +15°C° 0.1 mm 8 mps 751 mmHg 84%
    11:00 +15°C° 0.1 mm 8 mps 751 mmHg 80%
    12:00 +16°C° 0.1 mm 9 mps 751 mmHg 75%
    13:00 +16°C° 0.5 mm 8 mps 751 mmHg 75%
    14:00 +15°C° 0.5 mm 8 mps 752 mmHg 75%
    15:00 +15°C° 0.5 mm 7 mps 752 mmHg 74%
    16:00 +14°C° 0.1 mm 6 mps 753 mmHg 78%
    17:00 +11°C° 0.1 mm 6 mps 754 mmHg 83%
    18:00 +10°C° 0.1 mm 5 mps 754 mmHg 87%
    19:00 +9°C° 0 mm 5 mps 755 mmHg 87%
    20:00 +8°C° 0 mm 4 mps 756 mmHg 87%
    21:00 +7°C° 0 mm 4 mps 757 mmHg 87%
    22:00 +7°C° 0.1 mm 5 mps 758 mmHg 85%
    23:00 +6°C° 0.1 mm 5 mps 758 mmHg 82%

    Tomorrow, 16 October, Wednesday

    Time Temperature Precipitation Wind Pressure Humidity
    00:00 +5°C° 0.1 mm 6 mps 759 mmHg 79%
    01:00 +4°C° 0 mm 6 mps 760 mmHg 78%
    02:00 +3°C° 0 mm 5 mps 760 mmHg 77%
    03:00 +3°C° 0 mm 5 mps 761 mmHg 76%
    04:00 +3°C° 0 mm 5 mps 762 mmHg 73%
    05:00 +2°C° 0 mm 5 mps 762 mmHg 70%
    06:00 +2°C° 0 mm 5 mps 762 mmHg 67%
    07:00 +3°C° 0 mm 5 mps 763 mmHg 71%
    08:00 +3°C° 0 mm 5 mps 764 mmHg 75%
    09:00 +3°C° 0 mm 5 mps 764 mmHg 79%
    10:00 +5°C° 0 mm 5 mps 765 mmHg 75%
    11:00 +5°C° 0 mm 5 mps 765 mmHg 70%
    12:00 +6°C° 0 mm 5 mps 765 mmHg 66%
    13:00 +6°C° 0 mm 4 mps 766 mmHg 66%
    14:00 +5°C° 0 mm 4 mps 766 mmHg 66%
    15:00 +5°C° 0 mm 4 mps 766 mmHg 66%
    16:00 +4°C° 0 mm 3 mps 766 mmHg 71%
    17:00 +3°C° 0 mm 3 mps 767 mmHg 76%
    18:00 +3°C° 0 mm 2 mps 767 mmHg 81%
    19:00 +4°C° 0 mm 1 mps 767 mmHg 82%
    20:00 +4°C° 0 mm 1 mps 768 mmHg 83%
    21:00 +2°C° 0 mm 0 mps 768 mmHg 84%
    22:00 +2°C° 0 mm 0 mps 768 mmHg 85%
    23:00 +2°C° 0 mm 0 mps 768 mmHg 87%

    Day after tomorrow, 17 October, Thursday

    Time Temperature Precipitation Wind Pressure Humidity
    00:00 +2°C° 0 mm 0 mps 768 mmHg 88%
    01:00 +3°C° 0 mm 1 mps 768 mmHg 88%
    02:00 +3°C° 0 mm 1 mps 768 mmHg 89%
    03:00 +2°C° 0 mm 1 mps 768 mmHg 89%
    04:00 +3°C° 0 mm 1 mps 768 mmHg 89%
    05:00 +3°C° 0 mm 1 mps 768 mmHg 89%
    06:00 +2°C° 0 mm 2 mps 768 mmHg 88%
    07:00 +3°C° 0 mm 2 mps 768 mmHg 85%
    08:00 +2°C° 0 mm 3 mps 767 mmHg 82%
    09:00 +3°C° 0 mm 4 mps 767 mmHg 80%
    10:00 +3°C° 0 mm 5 mps 767 mmHg 75%
    11:00 +5°C° 0 mm 5 mps 766 mmHg 71%
    12:00 +5°C° 0 mm 6 mps 765 mmHg 66%
    13:00 +5°C° 0 mm 6 mps 765 mmHg 65%
    14:00 +7°C° 0 mm 6 mps 764 mmHg 63%
    15:00 +7°C° 0 mm 6 mps 764 mmHg 62%
    16:00 +5°C° 0 mm 6 mps 763 mmHg 64%
    17:00 +5°C° 0 mm 6 mps 762 mmHg 65%
    18:00 +6°C° 0 mm 5 mps 762 mmHg 67%
    19:00 +4°C° 0 mm 6 mps 761 mmHg 66%
    20:00 +4°C° 0 mm 6 mps 761 mmHg 65%
    21:00 +4°C° 0 mm 6 mps 761 mmHg 65%
    22:00 +4°C° 0 mm 6 mps 760 mmHg 64%
    23:00 +4°C° 0 mm 6 mps 760 mmHg 64%

    18 October, Friday

    Time Temperature Precipitation Wind Pressure Humidity
    00:00 +5°C° 0 mm 5 mps 759 mmHg 64%
    01:00 +5°C° 0 mm 5 mps 759 mmHg 66%
    02:00 +5°C° 0 mm 5 mps 758 mmHg 67%
    03:00 +5°C° 0 mm 5 mps 758 mmHg 69%
    04:00 +5°C° 0 mm 5 mps 758 mmHg 72%
    05:00 +5°C° 0 mm 4 mps 758 mmHg 75%
    06:00 +6°C° 0 mm 4 mps 757 mmHg 78%
    07:00 +6°C° 0.1 mm 4 mps 758 mmHg 81%
    08:00 +6°C° 0.1 mm 4 mps 758 mmHg 84%
    09:00 +8°C° 0.1 mm 3 mps 758 mmHg 88%
    10:00 +6°C° 0.3 mm 4 mps 759 mmHg 85%
    11:00 +5°C° 0.3 mm 4 mps 759 mmHg 83%
    12:00 +5°C° 0.3 mm 5 mps 760 mmHg 80%
    13:00 +5°C° 0.1 mm 4 mps 760 mmHg 78%
    14:00 +5°C° 0.1 mm 3 mps 760 mmHg 76%
    15:00 +5°C° 0.1 mm 3 mps 761 mmHg 74%
    16:00 +4°C° 0 mm 3 mps 761 mmHg 75%
    17:00 +4°C° 0 mm 4 mps 762 mmHg 75%
    18:00 +3°C° 0 mm 4 mps 763 mmHg 76%
    19:00 +3°C° 0 mm 4 mps 763 mmHg 78%
    20:00 +1°C° 0 mm 4 mps 764 mmHg 81%
    21:00 0°C° 0 mm 4 mps 764 mmHg 83%
    22:00 -1°C° 0 mm 4 mps 765 mmHg 84%
    23:00 0°C° 0 mm 3 mps 765 mmHg 85%

    19 October, Saturday

    Time Temperature Precipitation Wind Pressure Humidity
    00:00 -1°C° 0 mm 3 mps 765 mmHg 86%
    01:00 -1°C° 0 mm 3 mps 766 mmHg 86%
    02:00 -1°C° 0 mm 3 mps 766 mmHg 86%
    03:00 -1°C° 0 mm 3 mps 767 mmHg 86%
    04:00 -1°C° 0 mm 3 mps 767 mmHg 86%
    05:00 -1°C° 0 mm 3 mps 767 mmHg 85%
    06:00 -1°C° 0 mm 3 mps 768 mmHg 84%
    07:00 0°C° 0 mm 3 mps 768 mmHg 78%
    08:00 0°C° 0 mm 4 mps 768 mmHg 72%
    09:00 +1°C° 0 mm 4 mps 769 mmHg 66%
    10:00 +3°C° 0 mm 4 mps 769 mmHg 63%
    11:00 +3°C° 0 mm 4 mps 769 mmHg 60%
    12:00 +4°C° 0 mm 3 mps 769 mmHg 58%
    13:00 +4°C° 0 mm 3 mps 769 mmHg 59%
    14:00 +4°C° 0 mm 3 mps 769 mmHg 61%
    15:00 +4°C° 0 mm 3 mps 768 mmHg 62%
    16:00 +3°C° 0 mm 3 mps 769 mmHg 67%
    17:00 +2°C° 0 mm 3 mps 769 mmHg 72%
    18:00 +1°C° 0 mm 3 mps 769 mmHg 76%
    19:00 +1°C° 0 mm 3 mps 769 mmHg 77%
    20:00 +2°C° 0 mm 2 mps 769 mmHg 78%
    21:00 +1°C° 0 mm 2 mps 769 mmHg 79%
    22:00 +1°C° 0 mm 2 mps 769 mmHg 80%
    23:00 +1°C° 0 mm 2 mps 769 mmHg 80%

    20 October, Sunday

    Time Temperature Precipitation Wind Pressure Humidity
    00:00 +1°C° 0 mm 2 mps 769 mmHg 81%
    01:00 +1°C° 0 mm 2 mps 769 mmHg 81%
    02:00 -1°C° 0 mm 2 mps 769 mmHg 81%
    03:00 -1°C° 0 mm 2 mps 769 mmHg 81%
    04:00 -1°C° 0 mm 2 mps 769 mmHg 81%
    05:00 -1°C° 0 mm 2 mps 769 mmHg 81%
    06:00 -1°C° 0 mm 2 mps 769 mmHg 81%
    07:00 0°C° 0 mm 3 mps 769 mmHg 77%
    08:00 +1°C° 0 mm 3 mps 769 mmHg 73%
    09:00 +2°C° 0 mm 3 mps 769 mmHg 68%
    10:00 +3°C° 0 mm 3 mps 769 mmHg 65%
    11:00 +4°C° 0 mm 3 mps 769 mmHg 62%
    12:00 +5°C° 0 mm 3 mps 769 mmHg 59%
    13:00 +6°C° 0 mm 2 mps 769 mmHg 60%
    14:00 +7°C° 0 mm 2 mps 769 mmHg 60%
    15:00 +8°C° 0 mm 1 mps 769 mmHg 61%
    16:00 +7°C° 0 mm 1 mps 769 mmHg 63%
    17:00 +6°C° 0 mm 1 mps 769 mmHg 64%
    18:00 +6°C° 0 mm 1 mps 769 mmHg 66%
    19:00 +6°C° 0 mm 1 mps 769 mmHg 66%
    20:00 +6°C° 0 mm 1 mps 769 mmHg 66%
    21:00 +6°C° 0 mm 1 mps 770 mmHg 66%
    22:00 +6°C° 0 mm 1 mps 770 mmHg 66%
    23:00 +6°C° 0 mm 1 mps 770 mmHg 66%
    Show more